This demonstration page uses our WeatherBlox Daily Observations layout. Learn more.

39.29038, -76.61219

Hourly Observations for October 1, 2018

Temp ( °F °C ) Dew Point ( °F °C ) Humidity (%) Winds ( mph kmh ) Pressure ( in mb ) Visibility ( mi km ) Precip ( " mm )
12:54 am 00:54 undefined 67 19.4 61 16.1 81 81 undefined N/A 30.29 1026 N/A 0 0
1:54 am 01:54 undefined 66 18.9 62 16.7 87 87 undefined N/A 30.29 1026 N/A 0 0
2:54 am 02:54 undefined 66 18.9 62 16.7 87 87 undefined N/A 30.27 1025 N/A 0 0
3:54 am 03:54 undefined 65 18.3 62 16.7 90 90 undefined N/A 30.27 1025 N/A 0 0
4:54 am 04:54 undefined 65 18.3 62 16.7 90 90 undefined N/A 30.27 1025 N/A 0 0
5:54 am 05:54 undefined 64 17.8 62 16.7 93 93 undefined N/A 30.29 1026 N/A 0 0
6:54 am 06:54 undefined 64 17.8 62 16.7 93 93 undefined N/A 30.3 1026 N/A 0 0
7:54 am 07:54 undefined 65 18.3 62 16.7 90 90 undefined N/A 30.32 1027 N/A 0 0
8:54 am 08:54 undefined 68 20 62 16.7 81 81 undefined N/A 30.35 1028 N/A 0 0
9:54 am 09:54 undefined 73 22.8 64 17.8 74 74 undefined N/A 30.35 1028 N/A 0 0
10:54 am 10:54 undefined 76 24.4 65 18.3 69 69 undefined N/A 30.34 1028 N/A 0 0
11:54 am 11:54 undefined 78 25.6 65 18.3 64 64 undefined N/A 30.32 1027 N/A 0 0
12:54 pm 12:54 undefined 82 27.8 66 18.9 58 58 undefined N/A 30.3 1026 N/A 0 0
1:54 pm 13:54 undefined 84 28.9 66 18.9 55 55 undefined N/A 30.27 1025 N/A 0 0
2:54 pm 14:54 undefined 83 28.3 67 19.4 59 59 undefined N/A 30.24 1024 N/A 0 0
3:54 pm 15:54 undefined 81 27.2 67 19.4 62 62 undefined N/A 30.23 1024 N/A 0 0
4:54 pm 16:54 undefined 80 26.7 68 20 67 67 undefined N/A 30.22 1023 N/A 0 0
5:54 pm 17:54 undefined 79 26.1 68 20 69 69 undefined N/A 30.22 1023 N/A 0 0
6:54 pm 18:54 undefined 77 25 68 20 74 74 undefined N/A 30.22 1023 N/A 0 0
7:54 pm 19:54 undefined 75 23.9 68 20 79 79 undefined N/A 30.23 1024 N/A 0 0
8:54 pm 20:54 undefined 74 23.3 68 20 82 82 undefined N/A 30.24 1024 N/A 0 0
9:54 pm 21:54 undefined 73 22.8 68 20 84 84 undefined N/A 30.24 1024 N/A 0 0
10:54 pm 22:54 undefined 73 22.8 68 20 84 84 undefined N/A 30.24 1024 N/A 0 0
11:54 pm 23:54 undefined 71 21.7 68 20 90 90 undefined N/A 30.23 1024 N/A 0 0

Powered by AerisWeather